Regional Weather Roundup
Issued by NWS

Home | Current Version | Previous Version | Graphics & Text | Print | Product List | Glossary On
Versions: 1 2 3 4 5 6 7 8 9 10 11 12 13 14 15 16 17 18 19 20 21 22 23 24 25 26 27 28 29 30 31 32 33 34 35 36 37 38 39 40 41 42 43 44 45 46 47 48 49 50
000
ASUS43 KLOT 271708
RWRIL

ILLINOIS REGIONAL WEATHER ROUNDUP
NATIONAL WEATHER SERVICE CHICAGO/ROMEOVILLE IL
1200 PM CDT WED JUL 27 2016

NOTE: "FAIR" INDICATES FEW OR NO CLOUDS BELOW 12,000 FEET WITH NO
SIGNIFICANT WEATHER AND/OR OBSTRUCTIONS TO VISIBILITY.

* THESE STATIONS ARE NOT UNDER NWS QUALITY CONTROL. THEY ALSO MAY NOT
  REPORT WEATHER SUCH AS PRECIPITATION OR FOG.

ILZ001-002-007-009-015-016-024-271800-
NORTHWEST ILLINOIS

CITY           SKY/WX    TMP DP  RH WIND       PRES   REMARKS
MOLINE         PTSUNNY   85  66  53 SE3       30.01S HX  87
STERLING*      SUNNY     84  72  67 VRB3      30.03F HX  89
SAVANNA*       PTSUNNY   84  69  60 SE3       30.02S HX  87
$$

ILZ003-004-008-010-011-017-018-271800-
NORTH CENTRAL ILLINOIS

CITY           SKY/WX    TMP DP  RH WIND       PRES   REMARKS
ROCKFORD       MOSUNNY   83  65  54 W6        30.05R HX  85
FREEPORT*      MOSUNNY   81  65  59 CALM      30.06S HX  82
ROCHELLE*      SUNNY     82  69  64 CALM      30.04F HX  85
DE KALB*       PTSUNNY   83  69  62 SW3       30.06R HX  86
$$

ILZ005-006-012>014-019>023-271800-
NORTHEAST ILLINOIS

CITY           SKY/WX    TMP DP  RH WIND       PRES   REMARKS
CHICAGO-OHARE  MOSUNNY   84  63  49 W5        30.02R HX  85
CHICAGO-MIDWAY MOSUNNY   87  64  46 SW6       30.02R HX  88
AURORA         MOSUNNY   84  68  58 W3        30.04R HX  87
LANSING*       MOSUNNY   86  60  42 CALM      30.02S HX  86
JOLIET*        PTSUNNY   86  70  59 SW5       30.03S HX  90
WAUKEGAN       SUNNY     86  65  49 VRB5      30.01R HX  88
DUPAGE AIRPORT MOSUNNY   84  67  56 VRB6      30.03R HX  86
KANKAKEE*      SUNNY     86  67  52 SW8       30.05R HX  89
WHEELING       MOSUNNY   86  60  41 S6        30.03R HX  86
MORRIS*        SUNNY     83  68  60 CALM      30.03S HX  86
ROMEOVILLE*    SUNNY     83  67  56 NW3       30.04S HX  86
NORTHERLY ISL    N/A     81  70  69 SE5         N/A  HX  84
$$

LMZ740>746-271800-
SOUTHERN LAKE MICHIGAN

STATION/POSITION SKY/WX   TEMP    WIND        PRES    VSBY  WAVE
                          AIR SEA DIR/SP/G                  HT/PER
                          (F)     (DEG/KT/KT) (MB)    (MI)  (FT/S)
SOUTHERN BUOY              76 76  260/  4/  4 1015.7R         0
WILMETTE HARBOR            78 73  130/  4/  4   N/A           0
HARRISON CRIB              81     110/  4/  4   N/A
BURNHAM HARBOR             81     110/  4/  5   N/A
BURNS HARBOR               76     350/  3/  4 1016.9S
MICHIGAN CITY              78     300/  3/  4   N/A
MICHIGAN CITY 6N           77 78  340/  2/  4   N/A           0
ST. JOSEPH                 76 78  230/  6/  6 1016.4R         0
$$

ILZ025>027-034>036-040-047-049-050-058-095>099-271800-
WEST-CENTRAL ILLINOIS

CITY           SKY/WX    TMP DP  RH WIND       PRES   REMARKS
QUINCY         MOSUNNY   83  77  82 E3        30.00F HX  92
GALESBURG*     MOSUNNY   83  69  62 SE6       30.03S HX  86
MACOMB*        MOSUNNY   82  73  74 E5        30.04F HX  87
JACKSONVILLE*  PTSUNNY   83  74  73 CALM      30.01F HX  89
PITTSFIELD*    MOSUNNY   82  77  85 NE7       30.02F HX  90
$$

ILZ028>032-037-038-041>044-048-051>054-059>061-271800-
CENTRAL ILLINOIS

CITY           SKY/WX    TMP DP  RH WIND       PRES   REMARKS
PONTIAC        MOSUNNY   84  71  66 SE3       30.05S HX  89
BLOOMINGTON    MOSUNNY   82  68  62 CALM      30.06R HX  85
DECATUR        PTSUNNY   84  72  67 SE7       30.03S HX  89
PEORIA         MOSUNNY   84  69  60 MISG      30.02F HX  88
LACON*         MOSUNNY   83  66  56 CALM      30.03S HX  85
LINCOLN*       MOSUNNY   84  73  69 SE3       30.02F HX  90
SPRINGFIELD    PTSUNNY   84  73  69 VRB3      30.02S HX  90
TAYLORVILLE    PTSUNNY   84  74  71 MISG      30.02S HX  90
$$

ILZ033-039-045-046-055>057-062-063-271800-
EAST-CENTRAL ILLINOIS

CITY           SKY/WX    TMP DP  RH WIND       PRES   REMARKS
CHAMPAIGN      SUNNY     83  70  64 SE6       30.03F HX  87
MATTOON        MOSUNNY  N/A N/A N/A E5        30.01F
PARIS*         SUNNY     83  71  66 CALM      30.03F HX  88
$$

ILZ079-100>102-271800-
SOUTHWEST ILLINOIS

CITY           SKY/WX    TMP DP  RH WIND       PRES   REMARKS
ALTON          MOSUNNY   82  73  74 S12       30.01R HX  88
BELLEVILLE     CLOUDY    80  76  86 SE3       29.99S HX  86
CAHOKIA*       CLOUDY    82  73  74 SE5       30.00S HX  87
SPARTA*        CLOUDY    76  74  91 E6        30.01F
$$

ILZ064>066-069>071-074>076-080>082-084>086-088>090-092>094-271800-
SOUTH-CENTRAL ILLINOIS

CITY           SKY/WX    TMP DP  RH WIND       PRES   REMARKS
CARBONDALE     PTSUNNY   84  74  71 CALM      30.00S HX  91
CAIRO*         MOSUNNY   87  78  74 SW3       29.99F HX  98
EFFINGHAM*     PTSUNNY   84  76  77 E5        30.02F HX  93
MARION         PTSUNNY   86  75  70 SW6       30.00F HX  95
MT. VERNON     MOSUNNY   86  73  66 MISG      29.99S HX  93
CENTRALIA*     CLOUDY    83  78  84 CALM      30.00S HX  92
SALEM*         LGT RAIN  83  76  78 CALM      30.00F HX  91
METROPOLIS*    PTSUNNY   86  78  75 CALM      29.99F HX  98
$$

ILZ067-068-072-073-078-083-087-091-271800-
SOUTHEAST ILLINOIS

CITY           SKY/WX    TMP DP  RH WIND       PRES   REMARKS
LAWRENCEVILLE  CLOUDY    84  75  74 E3        30.00F HX  92
FLORA*         CLOUDY    85  75  72 CALM      30.00F HX  93
FAIRFIELD*     MOSUNNY   85  75  71 CALM      29.98F HX  94
HARRISBURG*    SUNNY     86  73  64 CALM      29.99F HX  93
ROBINSON*      CLOUDY    83  74  73 NE5       30.01F HX  90
CARMI*         MOSUNNY   87  77  71 CALM      29.98F HX  99
$$

ABBREVIATIONS USED IN REMARKS
   TC - TEMPERATURE IN CELSIUS
  WCI - WIND CHILL INDEX
   HX - HEAT INDEX
  VSB - VISIBILITY
$$





USA.gov is the U.S. government's official web portal to all federal, state and local government web resources and services.